DW0345 Weather Reports


Display with metric or nautical units.
time (UTC)temp
F
wind
direction
speed
MPH
gust
MPH
rain 1hr
in
rain 24hr
in
rain mn
in
humidity
%
barometer
mb
20230204051032 51 288 0.0 0.0 0.00 0.00 0.00 52
20230204050518 51 287 0.0 0.0 0.00 0.00 0.00 51
20230204050053 51 359 0.0 0.0 0.00 0.00 0.00 50
20230204045517 52 288 0.0 0.0 0.00 0.00 0.00 50
20230204045032 52 287 0.0 1.0 0.00 0.00 0.00 49
20230204044540 52 359 0.0 1.0 0.00 0.00 0.00 49
20230204044031 52 287 0.0 1.0 0.00 0.00 0.00 48
20230204043519 52 359 0.0 1.0 0.00 0.00 0.00 49
20230204043032 52 288 0.0 0.0 0.00 0.00 0.00 47
20230204042538 53 289 0.0 0.0 0.00 0.00 0.00 47
20230204042031 53 359 0.0 0.0 0.00 0.00 0.00 47
20230204041518 53 288 0.0 0.0 0.00 0.00 0.00 46
20230204041053 53 359 0.0 0.0 0.00 0.00 0.00 46
20230204040523 53 295 0.0 0.0 0.00 0.00 0.00 46
20230204040019 54 359 0.0 0.0 0.00 0.00 0.00 45
20230204035526 54 286 0.0 0.0 0.00 0.00 0.00 44
20230204035020 54 289 0.0 0.0 0.00 0.00 0.00 43
20230204034529 55 359 0.0 0.0 0.00 0.00 0.00 42
20230204034025 55 359 0.0 0.0 0.00 0.00 0.00 42
20230204033532 55 289 0.0 0.0 0.00 0.00 0.00 42
20230204033026 55 359 0.0 0.0 0.00 0.00 0.00 41
20230204032533 56 359 0.0 0.0 0.00 0.00 0.00 41
20230204032027 56 290 0.0 0.0 0.00 0.00 0.00 41
20230204031517 56 297 0.0 0.0 0.00 0.00 0.00 42
20230204031053 56 297 0.0 0.0 0.00 0.00 0.00 42
20230204030519 57 297 0.0 0.0 0.00 0.00 0.00 42
20230204030017 57 295 0.0 0.0 0.00 0.00 0.00 41
20230204025523 57 294 0.0 3.0 0.00 0.00 0.00 41
20230204025015 57 359 0.0 5.0 0.00 0.00 0.00 41
20230204024519 58 294 2.0 8.0 0.00 0.00 0.00 40
20230204024015 58 310 4.0 8.0 0.00 0.00 0.00 39
20230204023523 58 336 4.0 7.0 0.00 0.00 0.00 39
20230204023021 58 359 1.0 6.0 0.00 0.00 0.00 38
20230204022529 58 66 0.0 1.0 0.00 0.00 0.00 36
20230204022026 58 198 0.0 0.0 0.00 0.00 0.00 36
20230204021532 58 198 0.0 0.0 0.00 0.00 0.00 35
20230204021027 58 197 0.0 4.0 0.00 0.00 0.00 36
20230204020554 59 198 0.0 5.0 0.00 0.00 0.00 37
20230204020028 59 326 0.0 2.0 0.00 0.00 0.00 37
20230204015520 59 328 0.0 5.0 0.00 0.00 0.00 38
20230204015049 60 331 1.0 5.0 0.00 0.00 0.00 36
20230204014520 60 303 0.0 4.0 0.00 0.00 0.00 35
20230204014033 60 359 0.0 6.0 0.00 0.00 0.00 35
20230204013520 60 292 1.0 9.0 0.00 0.00 0.00 36
20230204013033 60 359 4.0 9.0 0.00 0.00 0.00 36
20230204012520 61 297 1.0 9.0 0.00 0.00 0.00 37
20230204012018 61 323 3.0 9.0 0.00 0.00 0.00 37
20230204011526 62 359 5.0 9.0 0.00 0.00 0.00 38
20230204011022 62 359 2.0 9.0 0.00 0.00 0.00 39
20230204010527 63 359 5.0 8.0 0.00 0.00 0.00 39
20230204010023 63 359 1.0 10.0 0.00 0.00 0.00 38
20230204005551 64 303 3.0 10.0 0.00 0.00 0.00 37
20230204005045 64 359 3.0 8.0 0.00 0.00 0.00 36
20230204004530 64 359 1.0 6.0 0.00 0.00 0.00 36
20230204004024 65 263 0.0 6.0 0.00 0.00 0.00 37
20230204003515 65 261 0.0 8.0 0.00 0.00 0.00 35
20230204003048 65 285 1.0 7.0 0.00 0.00 0.00 35
20230204002531 66 276 3.0 7.0 0.00 0.00 0.00 35
20230204002025 67 359 0.0 8.0 0.00 0.00 0.00 34
20230204001533 68 359 4.0 9.0 0.00 0.00 0.00 33
20230204001048 68 289 4.0 9.0 0.00 0.00 0.00 31
20230204000514 69 359 4.0 9.0 0.00 0.00 0.00 31
20230204000030 70 273 5.0 9.0 0.00 0.00 0.00 30
20230203235536 71 295 1.0 6.0 0.00 0.00 0.00 28
20230203235029 71 283 3.0 5.0 0.00 0.00 0.00 26
20230203234519 70 172 0.0 3.0 0.00 0.00 0.00 18
20230203234033 70 147 0.0 3.0 0.00 0.00 0.00 17
20230203233519 70 147 0.0 3.0 0.00 0.00 0.00 17
20230203233053 70 147 1.0 6.0 0.00 0.00 0.00 16
20230203232518 70 153 0.0 4.0 0.00 0.00 0.00 18
20230203232033 71 159 0.0 5.0 0.00 0.00 0.00 18
20230203231521 71 359 3.0 5.0 0.00 0.00 0.00 17
20230203231018 71 164 1.0 3.0 0.00 0.00 0.00 18
20230203230546 72 133 0.0 7.0 0.00 0.00 0.00 17
20230203230019 72 102 1.0 3.0 0.00 0.00 0.00 17
20230203225525 72 71 1.0 2.0 0.00 0.00 0.00 18
20230203225020 72 46 0.0 3.0 0.00 0.00 0.00 19
20230203224528 72 47 1.0 4.0 0.00 0.00 0.00 19
20230203224023 72 70 1.0 4.0 0.00 0.00 0.00 19
20230203223529 72 45 1.0 6.0 0.00 0.00 0.00 18
20230203223024 73 21 1.0 5.0 0.00 0.00 0.00 18
20230203222531 73 287 0.0 0.0 0.00 0.00 0.00 18
20230203222027 73 295 0.0 3.0 0.00 0.00 0.00 18
20230203221533 73 359 1.0 4.0 0.00 0.00 0.00 20
20230203221026 73 299 1.0 4.0 0.00 0.00 0.00 20
20230203220516 72 359 0.0 4.0 0.00 0.00 0.00 20
20230203220029 72 253 0.0 4.0 0.00 0.00 0.00 22
20230203215537 71 164 0.0 4.0 0.00 0.00 0.00 20
20230203215030 70 164 1.0 4.0 0.00 0.00 0.00 18
20230203214538 71 359 1.0 4.0 0.00 0.00 0.00 18
20230203214031 71 199 1.0 4.0 0.00 0.00 0.00 18
20230203213517 71 150 1.0 4.0 0.00 0.00 0.00 18
20230203213031 71 163 0.0 0.0 0.00 0.00 0.00 18
20230203212537 71 141 0.0 0.0 0.00 0.00 0.00 18
20230203212030 71 139 0.0 2.0 0.00 0.00 0.00 19
20230203211517 70 138 1.0 4.0 0.00 0.00 0.00 19
20230203211015 70 149 1.0 5.0 0.00 0.00 0.00 19
20230203210522 70 214 2.0 6.0 0.00 0.00 0.00 18
20230203210017 69 171 0.0 4.0 0.00 0.00 0.00 19
20230203205524 69 145 1.0 5.0 0.00 0.00 0.00 18
20230203205018 70 143 3.0 5.0 0.00 0.00 0.00 19
20230203204530 69 231 0.0 6.0 0.00 0.00 0.00 19
20230203204025 69 224 3.0 6.0 0.00 0.00 0.00 19
20230203203532 69 189 1.0 5.0 0.00 0.00 0.00 19
20230203203026 69 155 1.0 7.0 0.00 0.00 0.00 19
20230203202513 69 110 3.0 7.0 0.00 0.00 0.00 18
20230203202028 69 127 4.0 6.0 0.00 0.00 0.00 18
20230203201515 69 91 1.0 5.0 0.00 0.00 0.00 19
20230203201031 69 149 1.0 5.0 0.00 0.00 0.00 19
20230203200517 68 102 0.0 5.0 0.00 0.00 0.00 19
20230203200033 68 142 3.0 4.0 0.00 0.00 0.00 19
20230203195519 68 160 1.0 3.0 0.00 0.00 0.00 19
20230203195015 68 110 0.0 3.0 0.00 0.00 0.00 20
20230203194526 68 349 0.0 2.0 0.00 0.00 0.00 22
20230203194022 68 52 0.0 2.0 0.00 0.00 0.00 21
20230203193548 67 68 0.0 3.0 0.00 0.00 0.00 21
20230203193025 67 81 0.0 1.0 0.00 0.00 0.00 21
20230203192513 67 83 0.0 0.0 0.00 0.00 0.00 21
20230203192031 67 84 0.0 1.0 0.00 0.00 0.00 21
20230203191518 67 85 0.0 3.0 0.00 0.00 0.00 21
20230203191031 67 82 0.0 3.0 0.00 0.00 0.00 22
20230203190539 67 263 0.0 2.0 0.00 0.00 0.00 23
20230203190014 67 258 0.0 2.0 0.00 0.00 0.00 24
20230203185524 67 359 0.0 0.0 0.00 0.00 0.00 23
20230203185020 66 263 0.0 0.0 0.00 0.00 0.00 24
20230203184528 66 256 0.0 2.0 0.00 0.00 0.00 25
20230203184022 65 263 0.0 2.0 0.00 0.00 0.00 26
20230203183533 64 359 0.0 2.0 0.00 0.00 0.00 27
20230203183027 64 276 0.0 0.0 0.00 0.00 0.00 27
20230203182515 63 277 0.0 0.0 0.00 0.00 0.00 30
20230203182052 62 359 0.0 0.0 0.00 0.00 0.00 31
20230203181516 62 275 0.0 2.0 0.00 0.00 0.00 32
20230203181027 61 272 0.0 3.0 0.00 0.00 0.00 34
20230203180514 60 276 1.0 3.0 0.00 0.00 0.00 35
20230203180028 60 359 0.0 3.0 0.00 0.00 0.00 35
20230203175514 59 324 0.0 3.0 0.00 0.00 0.00 35
20230203175027 59 359 0.0 0.0 0.00 0.00 0.00 34
20230203174514 58 359 0.0 0.0 0.00 0.00 0.00 37
20230203174030 57 324 0.0 0.0 0.00 0.00 0.00 41
20230203173516 56 335 0.0 0.0 0.00 0.00 0.00 46
20230203173030 55 324 0.0 0.0 0.00 0.00 0.00 50
20230203172518 54 323 0.0 0.0 0.00 0.00 0.00 52
20230203172017 54 359 0.0 0.0 0.00 0.00 0.00 52
20230203171523 54 322 0.0 0.0 0.00 0.00 0.00 50
20230203171039 54 359 0.0 0.0 0.00 0.00 0.00 49
20230203170542 54 324 0.0 3.0 0.00 0.00 0.00 49
20230203170015 54 359 0.0 3.0 0.00 0.00 0.00 49
20230203165522 54 359 0.0 0.0 0.00 0.00 0.00 51
20230203165015 53 324 0.0 0.0 0.00 0.00 0.00 52
20230203164544 53 359 0.0 0.0 0.00 0.00 0.00 53
20230203164017 52 359 0.0 0.0 0.00 0.00 0.00 53
20230203163523 51 324 0.0 0.0 0.00 0.00 0.00 56
20230203163017 50 322 0.0 0.0 0.00 0.00 0.00 61
20230203162545 49 324 0.0 0.0 0.00 0.00 0.00 63
20230203162039 48 359 0.0 0.0 0.00 0.00 0.00 62
20230203161524 48 359 0.0 0.0 0.00 0.00 0.00 62
20230203161017 47 359 0.0 0.0 0.00 0.00 0.00 64
20230203160523 47 324 0.0 0.0 0.00 0.00 0.00 64
20230203160017 47 321 0.0 0.0 0.00 0.00 0.00 65
20230203155523 46 324 0.0 0.0 0.00 0.00 0.00 65
20230203155016 46 359 0.0 0.0 0.00 0.00 0.00 65
20230203154528 46 359 0.0 0.0 0.00 0.00 0.00 65
20230203154044 46 359 0.0 0.0 0.00 0.00 0.00 66
20230203153532 45 324 0.0 0.0 0.00 0.00 0.00 65
20230203153027 45 359 0.0 0.0 0.00 0.00 0.00 66
20230203152514 45 359 0.0 0.0 0.00 0.00 0.00 66
20230203152028 45 324 0.0 0.0 0.00 0.00 0.00 66
20230203151515 45 324 0.0 0.0 0.00 0.00 0.00 66
20230203151029 45 324 0.0 0.0 0.00 0.00 0.00 66
20230203150516 44 324 0.0 0.0 0.00 0.00 0.00 67
20230203150030 44 359 0.0 0.0 0.00 0.00 0.00 66
20230203145519 44 323 0.0 0.0 0.00 0.00 0.00 67
20230203145033 44 324 0.0 0.0 0.00 0.00 0.00 67
20230203144521 44 320 0.0 0.0 0.00 0.00 0.00 66
20230203144018 45 359 0.0 0.0 0.00 0.00 0.00 66
20230203143524 45 324 0.0 0.0 0.00 0.00 0.00 66
20230203143037 45 324 0.0 0.0 0.00 0.00 0.00 66
20230203142522 45 324 0.0 0.0 0.00 0.00 0.00 66
20230203142017 45 359 0.0 0.0 0.00 0.00 0.00 66
20230203141525 45 317 0.0 1.0 0.00 0.00 0.00 66
20230203141019 45 359 0.0 1.0 0.00 0.00 0.00 66
20230203140528 45 324 0.0 0.0 0.00 0.00 0.00 66
20230203140025 45 324 0.0 0.0 0.00 0.00 0.00 66
20230203135535 45 324 0.0 0.0 0.00 0.00 0.00 66
20230203135029 45 323 0.0 0.0 0.00 0.00 0.00 66
20230203134536 44 326 0.0 0.0 0.00 0.00 0.00 67
20230203134028 44 359 0.0 0.0 0.00 0.00 0.00 67
20230203133517 44 324 0.0 0.0 0.00 0.00 0.00 67
20230203133033 44 324 0.0 0.0 0.00 0.00 0.00 66
20230203132522 44 324 0.0 0.0 0.00 0.00 0.00 66
20230203132020 44 324 0.0 0.0 0.00 0.00 0.00 66
20230203131527 44 324 0.0 0.0 0.00 0.00 0.00 66
20230203131021 44 359 0.0 0.0 0.00 0.00 0.00 66
20230203130530 45 323 0.0 0.0 0.00 0.00 0.00 66
20230203130023 44 330 0.0 0.0 0.00 0.00 0.00 66
20230203125532 44 330 0.0 0.0 0.00 0.00 0.00 67
20230203125026 44 323 0.0 0.0 0.00 0.00 0.00 66
20230203124534 44 359 0.0 0.0 0.00 0.00 0.00 66
20230203124030 44 323 0.0 0.0 0.00 0.00 0.00 66
20230203123539 44 323 0.0 0.0 0.00 0.00 0.00 66
20230203123031 44 323 0.0 0.0 0.00 0.00 0.00 66
20230203122518 44 359 0.0 0.0 0.00 0.00 0.00 65
20230203122013 44 324 0.0 0.0 0.00 0.00 0.00 66
20230203121519 45 324 0.0 0.0 0.00 0.00 0.00 65
20230203121019 45 359 0.0 0.0 0.00 0.00 0.00 65
20230203120526 45 324 0.0 0.0 0.00 0.00 0.00 65
20230203120021 45 324 0.0 0.0 0.00 0.00 0.00 65
20230203115526 45 359 0.0 0.0 0.00 0.00 0.00 64
20230203115043 45 359 0.0 0.0 0.00 0.00 0.00 64
20230203114529 45 359 0.0 0.0 0.00 0.00 0.00 64
20230203114022 45 324 0.0 0.0 0.00 0.00 0.00 64
20230203113528 45 324 0.0 0.0 0.00 0.00 0.00 64
20230203113025 45 359 0.0 0.0 0.00 0.00 0.00 64
20230203112514 45 324 0.0 0.0 0.00 0.00 0.00 64
20230203112030 45 324 0.0 0.0 0.00 0.00 0.00 65
20230203111517 45 359 0.0 0.0 0.00 0.00 0.00 66
20230203111031 45 323 0.0 0.0 0.00 0.00 0.00 66
20230203110523 45 359 0.0 0.0 0.00 0.00 0.00 66
20230203110018 45 359 0.0 0.0 0.00 0.00 0.00 66
20230203105545 45 359 0.0 0.0 0.00 0.00 0.00 66
20230203105018 45 323 0.0 0.0 0.00 0.00 0.00 66
20230203104527 45 323 0.0 0.0 0.00 0.00 0.00 66
20230203104022 45 324 0.0 0.0 0.00 0.00 0.00 66
20230203103531 45 324 0.0 0.0 0.00 0.00 0.00 66
20230203103026 45 324 0.0 0.0 0.00 0.00 0.00 66
20230203102513 45 320 0.0 0.0 0.00 0.00 0.00 66
20230203102030 46 324 0.0 0.0 0.00 0.00 0.00 66
20230203101517 46 324 0.0 0.0 0.00 0.00 0.00 66
20230203101032 46 324 0.0 0.0 0.00 0.00 0.00 66
20230203100518 46 359 0.0 0.0 0.00 0.00 0.00 66
20230203100032 46 359 0.0 0.0 0.00 0.00 0.00 66
20230203095516 46 324 0.0 0.0 0.00 0.00 0.00 65
20230203095029 46 359 0.0 0.0 0.00 0.00 0.00 65
20230203094516 46 359 0.0 0.0 0.00 0.00 0.00 65
20230203094031 47 324 0.0 0.0 0.00 0.00 0.00 65
20230203093523 47 359 0.0 0.0 0.00 0.00 0.00 64
20230203093018 47 318 0.0 0.0 0.00 0.00 0.00 64
20230203092526 47 359 0.0 0.0 0.00 0.00 0.00 64
20230203092020 47 324 0.0 0.0 0.00 0.00 0.00 64
20230203091548 47 359 0.0 0.0 0.00 0.00 0.00 64
20230203091020 47 359 0.0 0.0 0.00 0.00 0.00 64
20230203090527 47 359 0.0 0.0 0.00 0.00 0.00 64
20230203090018 47 323 0.0 0.0 0.00 0.00 0.00 64
20230203085523 47 324 0.0 0.0 0.00 0.00 0.00 64
20230203085040 47 324 0.0 0.0 0.00 0.00 0.00 66
20230203084526 47 359 0.0 0.0 0.00 0.00 0.00 66
20230203084020 47 324 0.0 0.0 0.00 0.00 0.00 66
20230203083527 47 323 0.0 0.0 0.00 0.00 0.00 66
20230203083025 47 359 0.0 0.0 0.00 0.00 0.00 66
20230203082533 47 320 0.0 0.0 0.00 0.00 0.00 66
20230203082049 48 359 0.0 0.0 0.00 0.00 0.00 66
20230203081515 48 359 0.0 0.0 0.00 0.00 0.00 65
20230203081031 48 324 0.0 0.0 0.00 0.00 0.00 66
20230203080523 48 359 0.0 0.0 0.00 0.00 0.00 66
20230203080036 48 330 0.0 0.0 0.00 0.00 0.00 66
20230203075523 47 359 0.0 0.0 0.00 0.00 0.00 66
20230203075019 47 359 0.0 0.0 0.00 0.00 0.00 66
20230203074525 47 324 0.0 0.0 0.00 0.00 0.00 66
20230203074021 47 323 0.0 0.0 0.00 0.00 0.00 66
20230203073530 47 359 0.0 0.0 0.00 0.00 0.00 66
20230203073025 47 323 0.0 0.0 0.00 0.00 0.00 65
20230203072513 48 324 0.0 0.0 0.00 0.00 0.00 65
20230203072030 48 320 0.0 0.0 0.00 0.00 0.00 65
20230203071517 48 359 0.0 0.0 0.00 0.00 0.00 64
20230203071012 48 323 0.0 0.0 0.00 0.00 0.00 63
20230203070522 49 324 0.0 0.0 0.00 0.00 0.00 63
20230203070019 49 359 0.0 0.0 0.00 0.00 0.00 63
20230203065548 49 324 0.0 0.0 0.00 0.00 0.00 63
20230203065022 49 359 0.0 0.0 0.00 0.00 0.00 63
20230203064514 50 359 0.0 0.0 0.00 0.00 0.00 63
20230203064027 50 324 0.0 0.0 0.00 0.00 0.00 62
20230203063514 50 359 0.0 0.0 0.00 0.00 0.00 62
20230203063028 50 324 0.0 0.0 0.00 0.00 0.00 62
20230203062513 50 359 0.0 0.0 0.00 0.00 0.00 62
20230203062029 50 359 0.0 0.0 0.00 0.00 0.00 62
20230203061517 51 320 0.0 0.0 0.00 0.00 0.00 61
20230203061013 51 327 0.0 0.0 0.00 0.00 0.00 61
20230203060521 51 325 0.0 0.0 0.00 0.00 0.00 60
20230203060016 51 324 0.0 0.0 0.00 0.00 0.00 60
20230203055523 51 324 0.0 0.0 0.00 0.00 0.00 59
20230203055038 51 324 0.0 0.0 0.00 0.00 0.00 59
20230203054543 51 324 0.0 0.0 0.00 0.00 0.00 58
20230203054017 51 359 0.0 0.0 0.00 0.00 0.00 59
20230203053528 51 324 0.0 1.0 0.00 0.00 0.00 59
20230203053024 51 322 0.0 1.0 0.00 0.00 0.00 60
20230203052532 51 359 0.0 0.0 0.00 0.00 0.00 62
20230203052026 51 324 0.0 0.0 0.00 0.00 0.00 62
20230203051514 51 325 0.0 0.0 0.00 0.00 0.00 62